[[{"header":{"parameterUnit":"m.s-1","parameterCategory":2,"la1":30.2991,"la2":30.254,"lo1":-89.0895,"lo2":-89.0444,"dy":0.0017,"dx":0.0017,"nx":28,"ny":28,"refTime":"2023-05-01T21:00:00:Z","depth":"0","parameterNumber":2,"parameterNumberName":"U-component_of_CURRENTS"},"data":[0,0,0,0,0,0,0,0,0,0,0,0,0,0,0,0,0,0,0,0,0,0,0,0,0,0,0,0,0,0,0,0,0,0,0,0,0,0,0,0,0,0,0,0,0,0,0,0,0,0,0,0,0,0,0,0,0,0,-0.0253,-0.0254,0,-0.0315,-0.0316,-0.0316,-0.0338,-0.0338,-0.0338,-0.0338,-0.0417,-0.0419,-0.0421,0,0,0,0,0,0,0,0,0,0,0,0,0,-0.0167,-0.0168,-0.0253,-0.0254,-0.0255,-0.0315,-0.0316,-0.0316,-0.0338,-0.0338,-0.0338,-0.0338,-0.0416,-0.0418,-0.0421,0,0,0,0,0,0,0,0,0,0,0,0,0,-0.0212,-0.0169,-0.0253,-0.0275,-0.0278,-0.0315,-0.0316,-0.0317,-0.0338,-0.0338,-0.0338,-0.0338,-0.0415,-0.0418,-0.0421,-0.044,0,0,-0.0431,-0.0432,0,0,0,0,0,0,0,0,-0.0209,-0.0214,-0.0271,-0.0274,-0.0277,-0.0321,-0.0315,-0.036,-0.0338,-0.0312,-0.0338,-0.0338,-0.0388,-0.0394,-0.0401,-0.0443,-0.0447,-0.0431,-0.0433,-0.0434,-0.0435,0,0,0,0,0,0,0,-0.0206,-0.0212,-0.0275,-0.0272,-0.0276,-0.0287,-0.0293,-0.0323,-0.0347,-0.0314,-0.0317,-0.0328,-0.039,-0.0398,-0.0403,-0.0448,-0.0431,-0.0434,-0.0436,-0.0437,-0.0513,-0.0513,0,0,0,0,0,0,-0.0204,-0.0209,-0.0273,-0.0277,-0.0246,-0.0289,-0.0295,-0.0305,-0.0347,-0.0354,-0.0328,-0.0329,-0.0392,-0.0399,-0.0406,-0.0442,-0.0434,-0.0437,-0.0439,-0.0513,-0.0513,-0.0513,0,0,0,0,0,0,-0.0201,-0.0209,-0.027,-0.0247,-0.0256,-0.0291,-0.0301,-0.0306,-0.0313,-0.0358,-0.0364,-0.033,-0.0393,-0.0401,-0.0433,-0.0445,-0.0439,-0.0441,-0.0512,-0.0513,-0.0513,-0.0508,0,0,0,0,0,0,-0.0199,-0.0207,-0.0208,-0.0247,-0.0257,-0.0288,-0.0301,-0.0307,-0.0322,-0.0323,-0.0362,-0.0369,-0.0393,-0.0428,-0.0436,-0.0449,-0.0444,-0.0512,-0.0512,-0.0513,-0.0508,-0.0508,-0.0508,0,0,0,0,0,-0.0195,-0.02,-0.0207,-0.0215,-0.0259,-0.0289,-0.0294,-0.0318,-0.0322,-0.0324,-0.0352,-0.0368,-0.0436,-0.0431,-0.044,-0.0454,-0.0512,-0.0512,-0.0513,-0.0508,-0.0508,-0.0508,0,0,0,0,0,0,-0.0172,-0.0204,-0.0213,-0.0229,-0.0254,-0.0293,-0.03,-0.0314,-0.0337,-0.0337,-0.0374,-0.0383,-0.0415,-0.0432,-0.0426,-0.0475,-0.0475,-0.0477,-0.0468,-0.0468,-0.0468,-0.0468,-0.0446,0,0,0,0,0,-0.0165,-0.0173,-0.0208,-0.0222,-0.0231,-0.0262,-0.0276,-0.0291,-0.032,-0.0329,-0.0362,-0.0393,-0.0423,-0.0443,-0.047,-0.05,-0.051,-0.0512,-0.0513,-0.0512,-0.0517,-0.0531,-0.0533,-0.0514,-0.0514,-0.0514,0,0,-0.0166,-0.0182,-0.0189,-0.0217,-0.0237,-0.0257,-0.0269,-0.0287,-0.0313,-0.0336,-0.0375,-0.0394,-0.043,-0.0463,-0.0478,-0.0481,-0.0524,-0.0513,-0.0513,-0.0518,-0.0532,-0.0534,-0.0535,-0.0514,-0.0514,-0.0514,0,0,-0.0173,-0.0178,-0.0187,-0.02,-0.0225,-0.0247,-0.025,-0.0286,-0.0306,-0.0343,-0.0364,-0.0387,-0.0441,-0.0466,-0.0487,-0.0502,-0.052,-0.0511,-0.0518,-0.0531,-0.0533,-0.0535,-0.0552,-0.0555,-0.0514,-0.0514,-0.0514,0,-0.0176,-0.0189,-0.0196,-0.0205,-0.0222,-0.0242,-0.026,-0.0285,-0.033,-0.0356,-0.0354,-0.0423,-0.0444,-0.0489,-0.0493,-0.0503,-0.0515,-0.0516,-0.0532,-0.0533,-0.0535,-0.0552,-0.0556,-0.0514,-0.0514,-0.0514,-0.0514,0,-0.0191,-0.0196,-0.0202,-0.0222,-0.0236,-0.0253,-0.0286,-0.0308,-0.0333,-0.0367,-0.0411,-0.0433,-0.0474,-0.0481,-0.0496,-0.0524,-0.053,-0.0526,-0.0531,-0.0537,-0.0554,-0.0558,-0.0514,-0.0514,-0.0514,-0.0514,0,0,-0.0225,-0.0215,-0.022,-0.0225,-0.0244,-0.0264,-0.0297,-0.0346,-0.0379,-0.0409,-0.0452,-0.0488,-0.0493,-0.0514,-0.0525,-0.0536,-0.0553,-0.0538,-0.0539,-0.0554,-0.059,-0.06,-0.0605,-0.0554,-0.0555,-0.0555,-0.0597,0,-0.0244,-0.0255,-0.0249,-0.0273,-0.0285,-0.0299,-0.0331,-0.0371,-0.0409,-0.0453,-0.0475,-0.0512,-0.0509,-0.0519,-0.0531,-0.0549,-0.0563,-0.0543,-0.0582,-0.0584,-0.0592,-0.061,-0.0615,-0.0653,-0.0601,-0.0602,-0.0602,0,-0.0276,-0.0273,-0.029,-0.0298,-0.0305,-0.0324,-0.0376,-0.0405,-0.0461,-0.0485,-0.0516,-0.0535,-0.0561,-0.0544,-0.0582,-0.057,-0.0582,-0.0589,-0.0591,-0.0606,-0.0601,-0.0639,-0.0662,-0.0686,-0.0608,-0.0608,-0.0607,0,-0.0313,-0.0313,-0.0326,-0.0328,-0.0338,-0.0356,-0.0373,-0.0423,-0.0455,-0.0502,-0.0521,-0.0558,-0.057,-0.0588,-0.0605,-0.0596,-0.0641,-0.0629,-0.0652,-0.0653,-0.0669,-0.067,-0.0719,-0.0654,-0.0654,-0.0654,-0.0654,0,-0.0351,-0.0366,-0.0341,-0.035,-0.0375,-0.0373,-0.0414,-0.0441,-0.0473,-0.0513,-0.0532,-0.0562,-0.058,-0.0609,-0.0619,-0.0653,-0.0654,-0.0663,-0.0668,-0.0667,-0.0668,-0.0697,-0.0672,-0.0656,-0.0655,-0.0655,-0.0655,0,-0.0411,-0.039,-0.0402,-0.0393,-0.0395,-0.0416,-0.043,-0.0461,-0.0479,-0.0524,-0.0534,-0.0576,-0.0612,-0.0632,-0.0666,-0.0675,-0.0689,-0.071,-0.071,-0.0715,-0.0754,-0.0727,-0.0678,-0.0677,-0.0746,-0.0747,-0.0747,0,-0.0451,-0.0456,-0.0437,-0.0442,-0.0442,-0.0457,-0.0471,-0.0476,-0.0502,-0.054,-0.0565,-0.0605,-0.0648,-0.0699,-0.0725,-0.0754,-0.0714,-0.0765,-0.0746,-0.0768,-0.0742,-0.0654,-0.0651,-0.0766,-0.0767,-0.0767,-0.0767,0,-0.0524,-0.0507,-0.0509,-0.0507,-0.0513,-0.0513,-0.0527,-0.0547,-0.0556,-0.0575,-0.062,-0.065,-0.0703,-0.0751,-0.0782,-0.0789,-0.0737,-0.0776,-0.08,-0.0765,-0.067,-0.0669,-0.0727,-0.0772,-0.0771,-0.0771,-0.0771,-0.0771,-0.0585,-0.0598,-0.0586,-0.0586,-0.0583,-0.0585,-0.0601,-0.0601,-0.0625,-0.0656,-0.067,-0.0704,-0.0763,-0.0817,-0.0823,-0.0855,-0.0779,-0.0845,-0.0813,-0.0724,-0.0712,-0.0782,-0.0828,-0.0828,-0.0828,-0.0828,-0.0827,0,-0.0685,-0.0673,-0.067,-0.0665,-0.0671,-0.0642,-0.0651,-0.066,-0.0685,-0.0692,-0.0714,-0.0795,-0.0841,-0.088,-0.0939,-0.0912,-0.0846,-0.088,-0.0776,-0.0776,-0.0864,-0.0858,-0.0911,-0.0911,-0.0911,-0.0911,-0.0911,-0.091,-0.0742,-0.0761,-0.0737,-0.0749,-0.0741,-0.075,-0.0757,-0.0747,-0.075,-0.0799,-0.0837,-0.0878,-0.0921,-0.0935,-0.0951,-0.0939,-0.0871,-0.0794,-0.079,-0.0887,-0.0882,-0.0877,-0.087,-0.0924,-0.0924,-0.0698,-0.0696,-0.0695]},{"header":{"parameterUnit":"m.s-1","parameterCategory":2,"la1":30.2991,"la2":30.254,"lo1":-89.0895,"lo2":-89.0444,"dy":0.0017,"dx":0.0017,"nx":28,"ny":28,"refTime":"2023-05-01T21:00:00:Z","depth":"0","parameterNumber":3,"parameterNumberName":"V-component_of_CURRENTS"},"data":[0,0,0,0,0,0,0,0,0,0,0,0,0,0,0,0,0,0,0,0,0,0,0,0,0,0,0,0,0,0,0,0,0,0,0,0,0,0,0,0,0,0,0,0,0,0,0,0,0,0,0,0,0,0,0,0,0,0,-0.2029,-0.2029,0,-0.2026,-0.2026,-0.2026,-0.1991,-0.1991,-0.199,-0.1989,-0.1979,-0.1979,-0.198,0,0,0,0,0,0,0,0,0,0,0,0,0,-0.1987,-0.1988,-0.2029,-0.2029,-0.2029,-0.2026,-0.2026,-0.2026,-0.1992,-0.1991,-0.199,-0.1989,-0.1979,-0.1979,-0.198,0,0,0,0,0,0,0,0,0,0,0,0,0,-0.1997,-0.1988,-0.2029,-0.2012,-0.201,-0.2026,-0.2026,-0.2026,-0.1992,-0.1991,-0.1989,-0.1988,-0.1979,-0.1979,-0.198,-0.201,0,0,-0.1982,-0.1983,0,0,0,0,0,0,0,0,-0.1996,-0.1998,-0.2014,-0.2013,-0.2011,-0.2008,-0.2007,-0.202,-0.1992,-0.1999,-0.1989,-0.1987,-0.1989,-0.1989,-0.1991,-0.201,-0.2009,-0.1983,-0.1983,-0.1983,-0.1984,0,0,0,0,0,0,0,-0.1995,-0.1998,-0.2028,-0.2015,-0.2013,-0.1997,-0.1998,-0.2009,-0.2001,-0.1998,-0.1996,-0.1996,-0.1988,-0.199,-0.199,-0.2009,-0.1982,-0.1983,-0.1984,-0.1984,-0.2043,-0.2044,0,0,0,0,0,0,-0.1999,-0.1998,-0.2028,-0.2028,-0.2,-0.1999,-0.1999,-0.201,-0.2001,-0.1998,-0.1997,-0.1994,-0.199,-0.199,-0.199,-0.2014,-0.1983,-0.1984,-0.1985,-0.2042,-0.2044,-0.2045,0,0,0,0,0,0,-0.1998,-0.2002,-0.2028,-0.2012,-0.2014,-0.2002,-0.2014,-0.2011,-0.2011,-0.2,-0.1997,-0.2,-0.1989,-0.1989,-0.2016,-0.2013,-0.1984,-0.1985,-0.2041,-0.2043,-0.2044,-0.2069,0,0,0,0,0,0,-0.1997,-0.2002,-0.2019,-0.2013,-0.2015,-0.2044,-0.2015,-0.2012,-0.2013,-0.201,-0.2002,-0.1999,-0.1988,-0.2015,-0.2017,-0.2014,-0.1986,-0.204,-0.2042,-0.2044,-0.2067,-0.2071,-0.2075,0,0,0,0,0,-0.1996,-0.2029,-0.202,-0.2024,-0.2036,-0.2045,-0.2046,-0.2031,-0.2015,-0.2025,-0.2026,-0.2,-0.2028,-0.2018,-0.2019,-0.2016,-0.2039,-0.2041,-0.2044,-0.2065,-0.2071,-0.2075,0,0,0,0,0,0,-0.2038,-0.2028,-0.2018,-0.2052,-0.2049,-0.2039,-0.2058,-0.2038,-0.2047,-0.2047,-0.2027,-0.2026,-0.2041,-0.2039,-0.2027,-0.2041,-0.2024,-0.2027,-0.204,-0.2045,-0.2049,-0.2047,-0.1986,0,0,0,0,0,-0.2051,-0.2065,-0.2053,-0.2084,-0.2086,-0.207,-0.2074,-0.206,-0.2063,-0.2064,-0.2055,-0.2053,-0.2055,-0.2059,-0.2062,-0.2084,-0.2077,-0.208,-0.2085,-0.2088,-0.2089,-0.2098,-0.2103,-0.2053,-0.2053,-0.2053,0,0,-0.2072,-0.2076,-0.2081,-0.2092,-0.2093,-0.21,-0.2071,-0.2084,-0.2081,-0.2064,-0.2074,-0.207,-0.2066,-0.2081,-0.2086,-0.2077,-0.2098,-0.2091,-0.2094,-0.2093,-0.2101,-0.2106,-0.211,-0.2055,-0.2054,-0.2054,0,0,-0.2125,-0.213,-0.2152,-0.2146,-0.2147,-0.2138,-0.214,-0.2129,-0.2118,-0.2131,-0.2111,-0.2116,-0.2123,-0.2114,-0.2112,-0.2148,-0.212,-0.2141,-0.216,-0.217,-0.2173,-0.2177,-0.2168,-0.217,-0.2144,-0.2144,-0.2144,0,-0.2151,-0.2174,-0.2163,-0.2178,-0.2176,-0.2154,-0.2167,-0.2159,-0.2154,-0.2151,-0.214,-0.2141,-0.2136,-0.2142,-0.215,-0.2154,-0.2152,-0.2138,-0.2174,-0.2177,-0.218,-0.217,-0.2172,-0.2145,-0.2145,-0.2145,-0.2145,0,-0.2206,-0.2217,-0.2236,-0.2237,-0.2239,-0.2251,-0.2228,-0.2229,-0.2212,-0.2194,-0.2195,-0.219,-0.2187,-0.2181,-0.2177,-0.219,-0.2178,-0.2176,-0.2157,-0.2186,-0.2174,-0.2176,-0.2147,-0.2147,-0.2146,-0.2146,0,0,-0.2274,-0.2269,-0.2278,-0.2268,-0.2263,-0.2268,-0.2274,-0.2266,-0.226,-0.225,-0.2243,-0.2243,-0.2227,-0.2224,-0.221,-0.2216,-0.2231,-0.2208,-0.2207,-0.2192,-0.2241,-0.2239,-0.224,-0.2237,-0.2237,-0.2238,-0.2222,0,-0.2316,-0.2346,-0.2335,-0.2349,-0.2349,-0.2323,-0.2324,-0.2312,-0.2297,-0.2287,-0.2267,-0.2257,-0.2245,-0.2238,-0.2246,-0.2232,-0.2238,-0.2235,-0.2222,-0.2221,-0.221,-0.2244,-0.2292,-0.2283,-0.2224,-0.2224,-0.2224,0,-0.2368,-0.2373,-0.2396,-0.2372,-0.2373,-0.2381,-0.237,-0.2363,-0.2342,-0.2331,-0.232,-0.2292,-0.2287,-0.2275,-0.2271,-0.227,-0.2263,-0.2252,-0.2251,-0.2242,-0.2223,-0.2247,-0.2289,-0.2188,-0.2227,-0.2226,-0.2226,0,-0.2408,-0.2412,-0.2429,-0.2421,-0.2401,-0.2406,-0.2398,-0.2381,-0.2366,-0.2352,-0.2338,-0.233,-0.231,-0.2312,-0.2279,-0.228,-0.2271,-0.227,-0.2259,-0.2258,-0.2293,-0.2294,-0.2231,-0.2279,-0.2279,-0.2279,-0.2279,0,-0.2447,-0.2453,-0.2444,-0.2447,-0.2449,-0.2429,-0.2428,-0.242,-0.2401,-0.2381,-0.2358,-0.2339,-0.232,-0.2298,-0.2289,-0.2276,-0.2281,-0.2268,-0.2262,-0.2302,-0.2304,-0.2212,-0.2131,-0.2278,-0.2278,-0.2279,-0.2279,0,-0.2476,-0.2477,-0.2473,-0.2465,-0.2463,-0.2459,-0.2437,-0.2424,-0.2414,-0.2387,-0.2378,-0.2346,-0.2325,-0.2298,-0.2285,-0.2278,-0.2239,-0.2263,-0.2301,-0.23,-0.2208,-0.2126,-0.2091,-0.2102,-0.2261,-0.2261,-0.2261,0,-0.2486,-0.2494,-0.2487,-0.2479,-0.2474,-0.2462,-0.2448,-0.2436,-0.2424,-0.2384,-0.2375,-0.2339,-0.2316,-0.2294,-0.2314,-0.231,-0.2226,-0.2305,-0.2324,-0.2211,-0.2116,-0.2099,-0.2111,-0.2375,-0.2376,-0.2376,-0.2377,0,-0.2481,-0.2488,-0.2485,-0.2476,-0.2465,-0.2446,-0.2435,-0.2433,-0.2405,-0.2391,-0.2363,-0.2339,-0.2341,-0.2358,-0.2348,-0.235,-0.2261,-0.232,-0.2206,-0.2202,-0.2178,-0.2183,-0.2351,-0.2384,-0.2383,-0.2383,-0.2382,-0.2382,-0.246,-0.2455,-0.2454,-0.2439,-0.2439,-0.2424,-0.2397,-0.2404,-0.2388,-0.2353,-0.2352,-0.2324,-0.2365,-0.2389,-0.2372,-0.2332,-0.2318,-0.2278,-0.2189,-0.2184,-0.2196,-0.2365,-0.2387,-0.2386,-0.2385,-0.2385,-0.2385,0,-0.2384,-0.2396,-0.2404,-0.2387,-0.2379,-0.2387,-0.2371,-0.2347,-0.2332,-0.234,-0.232,-0.2331,-0.2354,-0.2351,-0.2336,-0.2217,-0.2254,-0.2107,-0.2088,-0.211,-0.2267,-0.2273,-0.2268,-0.2268,-0.2269,-0.2269,-0.2269,-0.2269,-0.2334,-0.2309,-0.2321,-0.2304,-0.2314,-0.2259,-0.2235,-0.2244,-0.2254,-0.223,-0.222,-0.2207,-0.2071,-0.2071,-0.1982,-0.1988,-0.1901,-0.1878,-0.1815,-0.1879,-0.1889,-0.1898,-0.1886,-0.18,-0.1799,-0.1766,-0.1764,-0.1763]}],[{"header":{"parameterUnit":"m.s-1","parameterCategory":2,"la1":30.2991,"la2":30.254,"lo1":-89.0895,"lo2":-89.0444,"dy":0.0017,"dx":0.0017,"nx":28,"ny":28,"refTime":"2023-05-01T21:00:00:Z","depth":"2","parameterNumber":2,"parameterNumberName":"U-component_of_CURRENTS"},"data":[0,0,0,0,0,0,0,0,0,0,0,0,0,0,0,0,0,0,0,0,0,0,0,0,0,0,0,0,0,0,0,0,0,0,0,0,0,0,0,0,0,0,0,0,0,0,0,0,0,0,0,0,0,0,0,0,0,0,-0.1102,-0.1102,0,-0.1079,-0.1079,-0.1079,-0.1088,-0.1089,-0.1089,-0.1089,-0.1091,-0.109,-0.109,0,0,0,0,0,0,0,0,0,0,0,0,0,-0.1179,-0.1177,-0.1102,-0.1102,-0.1102,-0.1079,-0.1079,-0.1079,-0.1088,-0.1089,-0.1089,-0.109,-0.1091,-0.1091,-0.109,0,0,0,0,0,0,0,0,0,0,0,0,0,-0.1151,-0.1177,-0.1102,-0.1102,-0.1102,-0.1079,-0.1079,-0.1079,-0.1088,-0.1089,-0.1089,-0.109,-0.1091,-0.1091,-0.109,-0.1075,0,0,-0.1089,-0.1088,0,0,0,0,0,0,0,0,-0.1153,-0.1149,-0.1103,-0.1102,-0.1102,-0.1086,-0.1107,-0.1078,-0.1088,-0.1095,-0.1089,-0.109,-0.109,-0.109,-0.1086,-0.1075,-0.1075,-0.1089,-0.1088,-0.1088,-0.1088,0,0,0,0,0,0,0,-0.1155,-0.115,-0.1095,-0.1102,-0.1102,-0.1112,-0.1108,-0.1101,-0.1091,-0.1094,-0.1095,-0.1089,-0.109,-0.1086,-0.1086,-0.1075,-0.1089,-0.1088,-0.1088,-0.1088,-0.1057,-0.1057,0,0,0,0,0,0,-0.1152,-0.1151,-0.1096,-0.1094,-0.1127,-0.111,-0.1106,-0.1092,-0.1091,-0.109,-0.1089,-0.109,-0.1087,-0.1087,-0.1086,-0.1062,-0.1088,-0.1088,-0.1087,-0.1058,-0.1057,-0.1057,0,0,0,0,0,0,-0.1153,-0.1147,-0.1097,-0.1122,-0.1116,-0.1107,-0.1091,-0.1091,-0.1082,-0.1086,-0.1087,-0.108,-0.1087,-0.1087,-0.1074,-0.1062,-0.1087,-0.1087,-0.1058,-0.1058,-0.1057,-0.1017,0,0,0,0,0,0,-0.1156,-0.1147,-0.1133,-0.1121,-0.1114,-0.1072,-0.1091,-0.109,-0.1077,-0.1078,-0.1078,-0.1079,-0.1088,-0.1074,-0.1073,-0.1062,-0.1087,-0.1059,-0.1058,-0.1057,-0.1019,-0.1015,-0.1012,0,0,0,0,0,-0.1158,-0.1135,-0.1132,-0.1125,-0.1095,-0.1071,-0.1068,-0.1066,-0.1076,-0.1063,-0.1068,-0.1079,-0.1068,-0.1073,-0.1072,-0.106,-0.106,-0.1058,-0.1057,-0.1021,-0.1016,-0.1012,0,0,0,0,0,0,-0.1161,-0.1133,-0.113,-0.1099,-0.1081,-0.1072,-0.1056,-0.1059,-0.1052,-0.1055,-0.1066,-0.1067,-0.1054,-0.106,-0.1066,-0.105,-0.1068,-0.1066,-0.1041,-0.1036,-0.1032,-0.1043,-0.1086,0,0,0,0,0,-0.1153,-0.1127,-0.1108,-0.1082,-0.107,-0.1062,-0.1052,-0.1051,-0.1045,-0.1042,-0.1045,-0.105,-0.1048,-0.1044,-0.1044,-0.1029,-0.1039,-0.1023,-0.1019,-0.1016,-0.1025,-0.1041,-0.104,-0.1053,-0.1053,-0.1053,0,0,-0.1145,-0.1128,-0.1112,-0.108,-0.1066,-0.1049,-0.1057,-0.1036,-0.1027,-0.1043,-0.103,-0.1034,-0.1041,-0.1028,-0.1023,-0.1031,-0.101,-0.1015,-0.1012,-0.1022,-0.104,-0.1039,-0.1038,-0.1052,-0.1052,-0.1052,0,0,-0.1127,-0.11,-0.1079,-0.1061,-0.1037,-0.103,-0.1022,-0.1009,-0.1004,-0.0988,-0.1004,-0.1002,-0.0993,-0.1,-0.1002,-0.0977,-0.0991,-0.0975,-0.0962,-0.0977,-0.0977,-0.0977,-0.0955,-0.0953,-0.0972,-0.0972,-0.0972,0,-0.1124,-0.1093,-0.1069,-0.1049,-0.1036,-0.1022,-0.1006,-0.0992,-0.098,-0.098,-0.0979,-0.0983,-0.0983,-0.0982,-0.0972,-0.0969,-0.0971,-0.0977,-0.0973,-0.0973,-0.0974,-0.0952,-0.0951,-0.097,-0.097,-0.0971,-0.0971,0,-0.1095,-0.1072,-0.1055,-0.1027,-0.1007,-0.0986,-0.0968,-0.0954,-0.0949,-0.0948,-0.0942,-0.0943,-0.0954,-0.0945,-0.0948,-0.0949,-0.0944,-0.0967,-0.0985,-0.097,-0.0947,-0.0947,-0.0967,-0.0968,-0.0968,-0.0969,0,0,-0.1089,-0.1046,-0.1041,-0.1031,-0.0996,-0.098,-0.0955,-0.0938,-0.0934,-0.0921,-0.0923,-0.0913,-0.0926,-0.093,-0.0935,-0.094,-0.0924,-0.095,-0.0952,-0.0928,-0.0931,-0.088,-0.0874,-0.0949,-0.095,-0.095,-0.0901,0,-0.1078,-0.1047,-0.1026,-0.0998,-0.0982,-0.0961,-0.0943,-0.0927,-0.0915,-0.0911,-0.0913,-0.0916,-0.0916,-0.0923,-0.0926,-0.0935,-0.0926,-0.0934,-0.095,-0.0949,-0.0907,-0.0873,-0.0812,-0.0761,-0.0901,-0.0901,-0.0901,0,-0.1061,-0.1044,-0.1018,-0.0994,-0.0984,-0.0969,-0.0945,-0.0928,-0.0915,-0.0909,-0.0913,-0.092,-0.092,-0.0928,-0.0928,-0.0934,-0.0928,-0.0928,-0.0927,-0.09,-0.0898,-0.0805,-0.0754,-0.09,-0.09,-0.09,-0.09,0,-0.1072,-0.104,-0.1022,-0.1009,-0.0978,-0.0969,-0.0954,-0.0934,-0.0922,-0.0917,-0.0915,-0.0921,-0.0927,-0.0931,-0.092,-0.093,-0.0914,-0.0933,-0.0875,-0.087,-0.0831,-0.0823,-0.0934,-0.0934,-0.0934,-0.0934,-0.0934,0,-0.1068,-0.1055,-0.1028,-0.1016,-0.1003,-0.0979,-0.0965,-0.0951,-0.0937,-0.0923,-0.0924,-0.0918,-0.0933,-0.0923,-0.0916,-0.0879,-0.0911,-0.0862,-0.0858,-0.081,-0.0801,-0.0947,-0.0949,-0.0932,-0.0933,-0.0933,-0.0934,0,-0.1081,-0.1058,-0.104,-0.1012,-0.1005,-0.0996,-0.0969,-0.0956,-0.0945,-0.0928,-0.0929,-0.0921,-0.0901,-0.0891,-0.0889,-0.0866,-0.0845,-0.0826,-0.0745,-0.0732,-0.0786,-0.0787,-0.0752,-0.075,-0.0749,-0.0747,-0.0746,0,-0.1085,-0.1073,-0.1042,-0.103,-0.1017,-0.1002,-0.0983,-0.0962,-0.0947,-0.0922,-0.0914,-0.0896,-0.0882,-0.0837,-0.0804,-0.0763,-0.0789,-0.0657,-0.0671,-0.077,-0.077,-0.0773,-0.0776,-0.0588,-0.0586,-0.0584,-0.0582,0,-0.109,-0.1075,-0.1054,-0.1029,-0.1008,-0.0993,-0.0971,-0.097,-0.0938,-0.0944,-0.0932,-0.0925,-0.0852,-0.081,-0.0736,-0.0671,-0.0659,-0.0614,-0.0749,-0.0646,-0.0612,-0.0613,-0.0622,-0.0564,-0.0566,-0.0567,-0.0568,-0.0569,-0.1087,-0.1072,-0.1033,-0.1017,-0.0994,-0.0982,-0.098,-0.0981,-0.0985,-0.0998,-0.0966,-0.099,-0.0856,-0.0803,-0.0652,-0.0513,-0.0572,-0.051,-0.0518,-0.0527,-0.0519,-0.0485,-0.0409,-0.041,-0.041,-0.0411,-0.0412,0,-0.1059,-0.1039,-0.1021,-0.0987,-0.0965,-0.0964,-0.0958,-0.0979,-0.1014,-0.1059,-0.1073,-0.0956,-0.0876,-0.075,-0.0565,-0.0424,-0.0394,-0.0318,-0.0344,-0.0361,-0.0376,-0.0362,-0.0209,-0.0209,-0.0208,-0.0208,0,0,-0.1037,-0.0996,-0.0987,-0.0951,-0.0944,-0.0925,-0.0933,-0.0986,-0.1045,-0.1114,-0.1162,-0.1164,-0.0999,-0.0814,-0.056,-0.0431,-0.0416,-0.0343,-0.0512,-0.0584,-0.0601,-0.0481,-0.0477,0,0,0,0,0]},{"header":{"parameterUnit":"m.s-1","parameterCategory":2,"la1":30.2991,"la2":30.254,"lo1":-89.0895,"lo2":-89.0444,"dy":0.0017,"dx":0.0017,"nx":28,"ny":28,"refTime":"2023-05-01T21:00:00:Z","depth":"2","parameterNumber":3,"parameterNumberName":"V-component_of_CURRENTS"},"data":[0,0,0,0,0,0,0,0,0,0,0,0,0,0,0,0,0,0,0,0,0,0,0,0,0,0,0,0,0,0,0,0,0,0,0,0,0,0,0,0,0,0,0,0,0,0,0,0,0,0,0,0,0,0,0,0,0,0,0.0836,0.0836,0,0.0898,0.0899,0.09,0.0895,0.0893,0.0892,0.0891,0.0893,0.0894,0.0896,0,0,0,0,0,0,0,0,0,0,0,0,0,0.0811,0.0812,0.0836,0.0836,0.0836,0.0897,0.0899,0.09,0.0895,0.0893,0.0892,0.089,0.0892,0.0894,0.0896,0,0,0,0,0,0,0,0,0,0,0,0,0,0.0847,0.0812,0.0836,0.0838,0.0838,0.0897,0.0899,0.09,0.0895,0.0893,0.0891,0.0889,0.0892,0.0894,0.0896,0.095,0,0,0.0902,0.0903,0,0,0,0,0,0,0,0,0.0845,0.0848,0.0837,0.0837,0.0838,0.0882,0.0891,0.0912,0.0896,0.0879,0.0891,0.0888,0.0882,0.0885,0.0909,0.095,0.095,0.0902,0.0904,0.0904,0.0905,0,0,0,0,0,0,0,0.0842,0.0846,0.0865,0.0837,0.0838,0.0868,0.0871,0.0896,0.0894,0.088,0.0879,0.0878,0.0882,0.0907,0.0909,0.095,0.0902,0.0904,0.0905,0.0906,0.0941,0.0941,0,0,0,0,0,0,0.0822,0.0844,0.0863,0.0867,0.0831,0.087,0.0873,0.0874,0.0895,0.0895,0.088,0.0878,0.0905,0.0906,0.0909,0.0869,0.0904,0.0906,0.0907,0.0942,0.0941,0.0941,0,0,0,0,0,0,0.0821,0.0823,0.0861,0.0852,0.0858,0.0871,0.0873,0.0876,0.0857,0.0895,0.0894,0.0852,0.0903,0.0906,0.0901,0.0872,0.0907,0.0909,0.0942,0.0942,0.0941,0.0856,0,0,0,0,0,0,0.0821,0.0823,0.0807,0.0851,0.0858,0.0871,0.0875,0.0879,0.0861,0.0857,0.0872,0.0873,0.0902,0.0898,0.0903,0.0875,0.0911,0.0942,0.0942,0.0941,0.0859,0.0852,0.0847,0,0,0,0,0,0.082,0.0809,0.0806,0.0807,0.0839,0.087,0.0877,0.0884,0.086,0.0857,0.0861,0.087,0.0898,0.0899,0.0905,0.0878,0.0943,0.0942,0.0941,0.0862,0.0854,0.0847,0,0,0,0,0,0,0.0797,0.0808,0.0806,0.0799,0.0819,0.0867,0.0856,0.086,0.0864,0.0842,0.0871,0.0874,0.0857,0.0886,0.0887,0.0889,0.092,0.0921,0.0857,0.085,0.0844,0.0837,0.0912,0,0,0,0,0,0.0783,0.0771,0.0797,0.0791,0.0789,0.0813,0.0818,0.0823,0.0838,0.0836,0.0846,0.0857,0.0872,0.0871,0.0893,0.0897,0.0925,0.0884,0.0878,0.0872,0.0872,0.0915,0.0913,0.0939,0.0939,0.0939,0,0,0.0776,0.0776,0.0771,0.0783,0.0792,0.0805,0.0811,0.0805,0.0814,0.0836,0.0828,0.0832,0.0868,0.087,0.0865,0.0881,0.0872,0.0871,0.0866,0.0869,0.0914,0.0912,0.0909,0.0938,0.0939,0.0939,0,0,0.0766,0.0747,0.0737,0.0747,0.0746,0.0769,0.0753,0.0775,0.077,0.0774,0.0786,0.0775,0.0799,0.0823,0.0838,0.0816,0.0838,0.0808,0.077,0.0811,0.0809,0.0808,0.0805,0.0804,0.0806,0.0806,0.0806,0,0.0748,0.0745,0.0742,0.0739,0.0741,0.0744,0.0745,0.0759,0.0776,0.0772,0.0754,0.0775,0.0786,0.0804,0.0782,0.0801,0.0811,0.0789,0.0802,0.0802,0.0802,0.08,0.08,0.0802,0.0802,0.0802,0.0803,0,0.0748,0.0734,0.0725,0.0722,0.0729,0.0724,0.0741,0.0733,0.0714,0.073,0.0715,0.0732,0.0741,0.0737,0.0745,0.0745,0.0745,0.0786,0.0816,0.0794,0.0793,0.0794,0.0796,0.0797,0.0798,0.0799,0,0,0.0728,0.0724,0.0715,0.0709,0.0711,0.072,0.0719,0.0731,0.0724,0.0714,0.0712,0.0705,0.0683,0.07,0.0703,0.0725,0.0707,0.0735,0.0739,0.0721,0.0756,0.0663,0.0656,0.0745,0.0746,0.0746,0.074,0,0.072,0.0712,0.0715,0.0708,0.0704,0.0706,0.0711,0.0717,0.0716,0.0717,0.0712,0.0702,0.0682,0.0657,0.0674,0.0709,0.0713,0.0702,0.0789,0.0791,0.0704,0.0657,0.0918,0.0928,0.0742,0.0743,0.0743,0,0.071,0.0707,0.0693,0.0691,0.0686,0.0678,0.0674,0.0679,0.0689,0.068,0.0667,0.067,0.0662,0.0661,0.0694,0.0681,0.0695,0.0727,0.0729,0.0677,0.0702,0.0929,0.0939,0.0747,0.0747,0.0746,0.0746,0,0.0691,0.0686,0.0669,0.0668,0.0672,0.0648,0.0637,0.0646,0.0647,0.0637,0.0637,0.0643,0.063,0.0666,0.0676,0.0685,0.073,0.077,0.0703,0.0696,0.0955,0.0968,0.0803,0.0803,0.0803,0.0803,0.0803,0,0.0676,0.0661,0.0644,0.0633,0.061,0.0606,0.0579,0.0578,0.0578,0.0586,0.0587,0.0602,0.0631,0.0657,0.0678,0.0666,0.0727,0.0675,0.0688,0.0924,0.0934,0.0822,0.0824,0.0802,0.0802,0.0802,0.0803,0,0.0652,0.0644,0.0626,0.0607,0.0594,0.0561,0.0533,0.0532,0.0518,0.0532,0.0518,0.056,0.0562,0.0589,0.0648,0.0649,0.0673,0.066,0.0888,0.0924,0.061,0.0608,0.0584,0.0581,0.0578,0.0576,0.0574,0,0.0639,0.0622,0.0596,0.0581,0.0557,0.0514,0.0501,0.0487,0.0502,0.0518,0.0541,0.0528,0.0518,0.0529,0.0533,0.0521,0.0587,0.08,0.0853,0.0572,0.0588,0.0591,0.0593,0.1174,0.1177,0.1179,0.1181,0,0.0615,0.0591,0.0579,0.0545,0.0514,0.0515,0.0491,0.0499,0.0502,0.0506,0.0524,0.0498,0.0463,0.0618,0.0582,0.0592,0.0811,0.0838,0.0569,0.1133,0.1112,0.1132,0.1119,0.1204,0.1202,0.12,0.1199,0.1198,0.0577,0.0563,0.0531,0.0497,0.049,0.0501,0.0476,0.0486,0.0483,0.0447,0.047,0.0513,0.0657,0.0639,0.0621,0.0684,0.0689,0.0951,0.0953,0.095,0.0963,0.0933,0.0993,0.0989,0.0987,0.0984,0.0982,0,0.0507,0.05,0.0487,0.0457,0.0447,0.0446,0.0468,0.045,0.0425,0.0398,0.0328,0.0542,0.0729,0.0855,0.1033,0.0985,0.0933,0.1007,0.1203,0.1194,0.1181,0.1207,0.1301,0.1297,0.1294,0.1291,0,0,0.0469,0.0425,0.0424,0.0394,0.0384,0.0348,0.0341,0.0338,0.0335,0.0335,0.0454,0.0379,0.0814,0.0965,0.1077,0.1286,0.1077,0.1145,0.0961,0.1178,0.1156,0.131,0.1358,0,0,0,0,0]}],[{"header":{"parameterUnit":"m.s-1","parameterCategory":2,"la1":30.2991,"la2":30.254,"lo1":-89.0895,"lo2":-89.0444,"dy":0.0017,"dx":0.0017,"nx":28,"ny":28,"refTime":"2023-05-01T21:00:00:Z","depth":"4","parameterNumber":2,"parameterNumberName":"U-component_of_CURRENTS"},"data":[0,0,0,0,0,0,0,0,0,0,0,0,0,0,0,0,0,0,0,0,0,0,0,0,0,0,0,0,0,0,0,0,0,0,0,0,0,0,0,0,0,0,0,0,0,0,0,0,0,0,0,0,0,0,0,0,0,0,-0.0647,-0.0647,0,-0.0667,-0.0667,-0.0668,-0.0784,-0.0787,-0.0789,-0.0792,-0.0966,-0.0968,-0.097,0,0,0,0,0,0,0,0,0,0,0,0,0,-0.0555,-0.0557,-0.0647,-0.0647,-0.0647,-0.0667,-0.0667,-0.0668,-0.0783,-0.0787,-0.079,-0.0793,-0.0966,-0.0968,-0.0971,0,0,0,0,0,0,0,0,0,0,0,0,0,-0.0588,-0.0558,-0.0647,-0.0707,-0.0713,-0.0667,-0.0667,-0.0668,-0.0783,-0.0787,-0.0791,-0.0795,-0.0965,-0.0968,-0.0971,-0.0907,0,0,-0.098,-0.0982,0,0,0,0,0,0,0,0,-0.0586,-0.0591,-0.0698,-0.0703,-0.0709,-0.0727,-0.0699,-0.0755,-0.0782,-0.0756,-0.0792,-0.0797,-0.0897,-0.0906,-0.0899,-0.0915,-0.0923,-0.0981,-0.0983,-0.0984,-0.0985,0,0,0,0,0,0,0,-0.0584,-0.059,-0.0655,-0.0698,-0.0705,-0.068,-0.0691,-0.0709,-0.0807,-0.0759,-0.0767,-0.0768,-0.0902,-0.0896,-0.0905,-0.0925,-0.0981,-0.0983,-0.0985,-0.0987,-0.1128,-0.113,0,0,0,0,0,0,-0.0584,-0.0588,-0.0655,-0.0656,-0.0656,-0.0679,-0.0691,-0.0717,-0.0803,-0.0819,-0.0764,-0.0773,-0.0888,-0.0901,-0.0911,-0.1061,-0.0984,-0.0987,-0.0989,-0.1126,-0.1128,-0.113,0,0,0,0,0,0,-0.0582,-0.0591,-0.0654,-0.0621,-0.0627,-0.0678,-0.0705,-0.0716,-0.0752,-0.0805,-0.0825,-0.0795,-0.0892,-0.0907,-0.0988,-0.1061,-0.0988,-0.0991,-0.1124,-0.1127,-0.1129,-0.1219,0,0,0,0,0,0,-0.058,-0.0591,-0.0614,-0.0622,-0.0629,-0.067,-0.0701,-0.0713,-0.0743,-0.0756,-0.0837,-0.0855,-0.0896,-0.0983,-0.0991,-0.1064,-0.0993,-0.1121,-0.1125,-0.1128,-0.1214,-0.1225,-0.1234,0,0,0,0,0,-0.0577,-0.059,-0.0616,-0.0624,-0.066,-0.0671,-0.0674,-0.0721,-0.0741,-0.0766,-0.0832,-0.0855,-0.1012,-0.0986,-0.0995,-0.1071,-0.112,-0.1124,-0.1128,-0.121,-0.1223,-0.1234,0,0,0,0,0,0,-0.0566,-0.0602,-0.0632,-0.0659,-0.0685,-0.0692,-0.0702,-0.0725,-0.0785,-0.0801,-0.0864,-0.0886,-0.0983,-0.0998,-0.0968,-0.112,-0.1074,-0.108,-0.1133,-0.1146,-0.1156,-0.1117,-0.0996,0,0,0,0,0,-0.057,-0.0586,-0.0625,-0.0641,-0.0658,-0.068,-0.0689,-0.0717,-0.0759,-0.0789,-0.0879,-0.0946,-0.0992,-0.1049,-0.1092,-0.1162,-0.1119,-0.122,-0.123,-0.1239,-0.1212,-0.1223,-0.1231,-0.1144,-0.1144,-0.1144,0,0,-0.0569,-0.0583,-0.0598,-0.0638,-0.0654,-0.0674,-0.0698,-0.0712,-0.0742,-0.0795,-0.0907,-0.0974,-0.1011,-0.111,-0.1157,-0.1148,-0.1237,-0.1244,-0.1252,-0.1219,-0.1228,-0.1236,-0.1244,-0.1147,-0.1147,-0.1146,0,0,-0.0555,-0.0591,-0.0608,-0.0629,-0.0655,-0.0664,-0.0678,-0.0738,-0.0791,-0.0872,-0.0927,-0.1031,-0.1133,-0.1193,-0.1216,-0.1292,-0.1274,-0.1338,-0.1384,-0.1397,-0.1403,-0.1409,-0.1344,-0.1343,-0.1365,-0.1365,-0.1365,0,-0.0555,-0.0578,-0.0612,-0.063,-0.0642,-0.0667,-0.0688,-0.0719,-0.0816,-0.0869,-0.0929,-0.1094,-0.1157,-0.1231,-0.1299,-0.1315,-0.1297,-0.134,-0.1409,-0.1413,-0.1417,-0.135,-0.1347,-0.137,-0.137,-0.1369,-0.1369,0,-0.055,-0.058,-0.058,-0.0619,-0.0649,-0.0647,-0.0705,-0.0781,-0.0854,-0.0904,-0.1036,-0.1135,-0.1268,-0.1303,-0.1335,-0.1418,-0.1384,-0.1403,-0.1374,-0.1431,-0.1356,-0.1352,-0.1377,-0.1375,-0.1374,-0.1373,0,0,-0.0521,-0.0567,-0.057,-0.0609,-0.0633,-0.0666,-0.072,-0.0785,-0.0841,-0.0973,-0.1084,-0.1198,-0.1312,-0.1345,-0.1427,-0.1438,-0.1476,-0.1464,-0.1463,-0.139,-0.1461,-0.1234,-0.1207,-0.1533,-0.1534,-0.1534,-0.139,0,-0.0504,-0.0514,-0.0555,-0.0602,-0.0624,-0.0688,-0.0745,-0.0818,-0.0898,-0.1032,-0.112,-0.1271,-0.1306,-0.1449,-0.1461,-0.1477,-0.1474,-0.1509,-0.1422,-0.1417,-0.1203,-0.1198,-0.1535,-0.1386,-0.1385,-0.1384,-0.1384,0,-0.0506,-0.05,-0.0527,-0.0618,-0.0643,-0.0699,-0.0809,-0.0876,-0.1004,-0.1126,-0.1266,-0.1344,-0.1455,-0.1493,-0.1479,-0.1515,-0.1509,-0.1467,-0.1463,-0.1207,-0.1182,-0.1323,-0.1375,-0.1376,-0.1376,-0.1377,-0.1377,0,-0.0469,-0.0513,-0.0529,-0.0547,-0.0637,-0.0722,-0.0803,-0.0914,-0.1005,-0.1239,-0.133,-0.144,-0.1537,-0.1537,-0.1469,-0.1536,-0.1352,-0.1446,-0.1189,-0.1171,-0.1381,-0.1377,-0.141,-0.1411,-0.1411,-0.1411,-0.1412,0,-0.044,-0.0466,-0.0533,-0.055,-0.0612,-0.0738,-0.0864,-0.0981,-0.1166,-0.1192,-0.1423,-0.1409,-0.1558,-0.1456,-0.1443,-0.1231,-0.1345,-0.1149,-0.1117,-0.1419,-0.1422,-0.1376,-0.1374,-0.1406,-0.1407,-0.1408,-0.1409,0,-0.0417,-0.044,-0.0475,-0.0566,-0.0607,-0.0686,-0.0904,-0.097,-0.1194,-0.1244,-0.1348,-0.1425,-0.1295,-0.1277,-0.1207,-0.1145,-0.1017,-0.0916,-0.1139,-0.1129,-0.0847,-0.0853,-0.0681,-0.0672,-0.0664,-0.0657,-0.0652,0,-0.04,-0.0414,-0.0465,-0.0487,-0.0543,-0.0688,-0.0743,-0.099,-0.1012,-0.1116,-0.1052,-0.1044,-0.1033,-0.0761,-0.0775,-0.0697,-0.069,-0.0657,-0.0853,-0.0785,-0.0773,-0.079,-0.0805,-0.0639,-0.0637,-0.0635,-0.0633,0,-0.0365,-0.0387,-0.04,-0.0419,-0.0479,-0.0527,-0.0608,-0.0662,-0.082,-0.0958,-0.0831,-0.0811,-0.0605,-0.0569,-0.0499,-0.0436,-0.0721,-0.0578,-0.0599,-0.0783,-0.0733,-0.0732,-0.0756,-0.0606,-0.061,-0.0612,-0.0614,0,-0.0345,-0.0318,-0.0337,-0.037,-0.0395,-0.0363,-0.0448,-0.0447,-0.0542,-0.064,-0.0495,-0.0486,-0.0494,-0.0406,-0.0281,-0.0257,-0.0317,-0.039,-0.0422,-0.0453,-0.0442,-0.035,-0.0037,0,0,0,0,0,-0.0314,-0.0286,-0.0294,-0.0286,-0.0295,-0.0301,-0.0319,-0.0391,-0.0454,-0.0332,-0.0483,-0.0298,-0.0231,-0.0197,-0.0133,-0.0136,-0.0293,-0.0054,-0.0391,-0.0455,-0.0487,-0.0494,0,0,0,0,0,0,-0.0291,-0.028,-0.0265,-0.0219,-0.0205,-0.0171,-0.0188,-0.0209,-0.0173,-0.0247,-0.0209,-0.0248,-0.0176,-0.0266,-0.012,-0.0107,-0.0304,-0.0044,-0.0041,-0.0437,-0.0466,-0.0491,-0.051,0,0,0,0,0]},{"header":{"parameterUnit":"m.s-1","parameterCategory":2,"la1":30.2991,"la2":30.254,"lo1":-89.0895,"lo2":-89.0444,"dy":0.0017,"dx":0.0017,"nx":28,"ny":28,"refTime":"2023-05-01T21:00:00:Z","depth":"4","parameterNumber":3,"parameterNumberName":"V-component_of_CURRENTS"},"data":[0,0,0,0,0,0,0,0,0,0,0,0,0,0,0,0,0,0,0,0,0,0,0,0,0,0,0,0,0,0,0,0,0,0,0,0,0,0,0,0,0,0,0,0,0,0,0,0,0,0,0,0,0,0,0,0,0,0,-0.0473,-0.0473,0,-0.0504,-0.0505,-0.0505,-0.0539,-0.0539,-0.0539,-0.0539,-0.0545,-0.0545,-0.0545,0,0,0,0,0,0,0,0,0,0,0,0,0,-0.0463,-0.0464,-0.0473,-0.0473,-0.0472,-0.0504,-0.0505,-0.0506,-0.0539,-0.0539,-0.0539,-0.0539,-0.0545,-0.0545,-0.0545,0,0,0,0,0,0,0,0,0,0,0,0,0,-0.0484,-0.0464,-0.0473,-0.0488,-0.049,-0.0503,-0.0505,-0.0506,-0.0539,-0.0539,-0.0539,-0.0539,-0.0545,-0.0545,-0.0545,-0.055,0,0,-0.0546,-0.0546,0,0,0,0,0,0,0,0,-0.0483,-0.0485,-0.0486,-0.0487,-0.0489,-0.0512,-0.0503,-0.0517,-0.0539,-0.0527,-0.0539,-0.0539,-0.0527,-0.0529,-0.0545,-0.055,-0.055,-0.0546,-0.0547,-0.0547,-0.0547,0,0,0,0,0,0,0,-0.0481,-0.0484,-0.0491,-0.0486,-0.0487,-0.05,-0.0504,-0.0507,-0.0532,-0.0528,-0.0529,-0.0523,-0.0529,-0.0544,-0.0545,-0.0551,-0.0546,-0.0547,-0.0547,-0.0547,-0.0606,-0.0607,0,0,0,0,0,0,-0.0464,-0.0483,-0.049,-0.0492,-0.0478,-0.05,-0.0504,-0.051,-0.0533,-0.0534,-0.0523,-0.0524,-0.0544,-0.0544,-0.0545,-0.0599,-0.0547,-0.0547,-0.0547,-0.0604,-0.0606,-0.0607,0,0,0,0,0,0,-0.0464,-0.0465,-0.0489,-0.0482,-0.0485,-0.05,-0.0506,-0.051,-0.0546,-0.0528,-0.053,-0.0555,-0.0544,-0.0544,-0.0569,-0.0597,-0.0547,-0.0547,-0.0603,-0.0605,-0.0607,-0.0675,0,0,0,0,0,0,-0.0464,-0.0465,-0.0485,-0.0481,-0.0485,-0.0509,-0.0506,-0.0511,-0.0537,-0.054,-0.0555,-0.0555,-0.0544,-0.0569,-0.0569,-0.0596,-0.0548,-0.0601,-0.0604,-0.0606,-0.0671,-0.0679,-0.0686,0,0,0,0,0,-0.0464,-0.0477,-0.0486,-0.0487,-0.0504,-0.0509,-0.0514,-0.0527,-0.0539,-0.056,-0.0573,-0.0556,-0.0585,-0.057,-0.057,-0.0598,-0.06,-0.0603,-0.0606,-0.0668,-0.0678,-0.0686,0,0,0,0,0,0,-0.0473,-0.0481,-0.0491,-0.0504,-0.0513,-0.0513,-0.0528,-0.0543,-0.0573,-0.0573,-0.0574,-0.0574,-0.0613,-0.0594,-0.0578,-0.0623,-0.0589,-0.0593,-0.0636,-0.0645,-0.0653,-0.0652,-0.0548,0,0,0,0,0,-0.0485,-0.0504,-0.0506,-0.0518,-0.0523,-0.0535,-0.0546,-0.055,-0.0561,-0.0576,-0.0596,-0.0606,-0.0623,-0.0625,-0.0639,-0.0656,-0.0609,-0.0674,-0.0681,-0.0688,-0.0688,-0.0641,-0.0644,-0.0617,-0.0617,-0.0617,0,0,-0.0488,-0.0495,-0.0506,-0.0523,-0.0531,-0.0554,-0.0544,-0.0553,-0.0582,-0.0569,-0.0631,-0.0642,-0.0638,-0.0669,-0.0682,-0.0655,-0.067,-0.0692,-0.0697,-0.0694,-0.0644,-0.0647,-0.0649,-0.0619,-0.0619,-0.0619,0,0,-0.0496,-0.0513,-0.0535,-0.0546,-0.0555,-0.0569,-0.0578,-0.0598,-0.0619,-0.0661,-0.0669,-0.07,-0.0724,-0.0733,-0.0736,-0.0791,-0.0722,-0.0791,-0.0815,-0.0771,-0.0772,-0.0772,-0.0706,-0.07,-0.0781,-0.0781,-0.0781,0,-0.0505,-0.0528,-0.0541,-0.056,-0.0575,-0.0583,-0.0608,-0.0631,-0.0664,-0.0691,-0.0685,-0.0757,-0.0757,-0.0796,-0.0811,-0.0809,-0.0753,-0.0782,-0.0778,-0.0778,-0.0777,-0.0709,-0.0702,-0.0784,-0.0784,-0.0784,-0.0783,0,-0.0518,-0.055,-0.0556,-0.0599,-0.0627,-0.0635,-0.0662,-0.0709,-0.074,-0.0761,-0.082,-0.0827,-0.0856,-0.0871,-0.0853,-0.0864,-0.0815,-0.0803,-0.0751,-0.0783,-0.071,-0.0701,-0.079,-0.0788,-0.0787,-0.0786,0,0,-0.05,-0.0558,-0.0563,-0.0607,-0.0641,-0.0671,-0.0726,-0.0781,-0.0827,-0.0862,-0.0915,-0.0951,-0.0943,-0.0945,-0.0934,-0.0902,-0.085,-0.0841,-0.0837,-0.0768,-0.0717,-0.064,-0.0622,-0.082,-0.0819,-0.0819,-0.0664,0,-0.0509,-0.0555,-0.0589,-0.0664,-0.0697,-0.0742,-0.0803,-0.0856,-0.089,-0.0944,-0.0953,-0.0968,-0.0968,-0.0952,-0.0941,-0.0878,-0.0829,-0.0891,-0.0703,-0.0697,-0.0619,-0.0611,-0.0816,-0.0657,-0.0655,-0.0653,-0.0652,0,-0.0517,-0.0549,-0.0612,-0.0717,-0.0739,-0.0803,-0.0908,-0.0952,-0.1012,-0.1016,-0.1037,-0.1011,-0.0993,-0.0963,-0.0876,-0.0904,-0.081,-0.0757,-0.0749,-0.0647,-0.0603,-0.0621,-0.0635,-0.0636,-0.0637,-0.0638,-0.0639,0,-0.0509,-0.0583,-0.0644,-0.0669,-0.0776,-0.0847,-0.0915,-0.0991,-0.1015,-0.1028,-0.1002,-0.1011,-0.0948,-0.089,-0.078,-0.0795,-0.0663,-0.0666,-0.0514,-0.0507,-0.0592,-0.0593,-0.0575,-0.0575,-0.0575,-0.0575,-0.0576,0,-0.0512,-0.0568,-0.0658,-0.0694,-0.0793,-0.0868,-0.0975,-0.1015,-0.1051,-0.1051,-0.1019,-0.097,-0.0909,-0.0827,-0.0768,-0.0611,-0.0638,-0.0507,-0.0461,-0.0624,-0.063,-0.0584,-0.0587,-0.057,-0.0571,-0.0572,-0.0573,0,-0.0511,-0.0558,-0.0638,-0.075,-0.0799,-0.0873,-0.0993,-0.1044,-0.1043,-0.1026,-0.0986,-0.0897,-0.0743,-0.0693,-0.0559,-0.0534,-0.0431,-0.0359,-0.052,-0.0488,-0.0305,-0.0314,-0.0168,-0.0164,-0.0161,-0.0158,-0.0156,0,-0.0517,-0.0553,-0.0665,-0.0723,-0.0791,-0.0908,-0.098,-0.1033,-0.1027,-0.0968,-0.0914,-0.0754,-0.0683,-0.045,-0.0417,-0.0282,-0.0264,-0.022,-0.0289,-0.0293,-0.0263,-0.0278,-0.029,-0.015,-0.0149,-0.0148,-0.0147,0,-0.052,-0.0559,-0.0618,-0.0705,-0.0802,-0.0894,-0.0967,-0.0946,-0.0956,-0.0952,-0.0772,-0.0652,-0.0478,-0.0362,-0.0236,-0.0168,-0.0278,-0.0184,-0.0191,-0.0255,-0.0269,-0.0246,-0.0263,-0.0136,-0.0137,-0.0138,-0.0139,0,-0.0519,-0.0545,-0.0604,-0.068,-0.0801,-0.0845,-0.0897,-0.0863,-0.0849,-0.0748,-0.0695,-0.0548,-0.0476,-0.0295,-0.0217,-0.011,-0.0087,-0.0097,-0.0108,-0.0121,-0.0176,-0.0192,0.0022,0,0,0,0,0,-0.0498,-0.0507,-0.0579,-0.0652,-0.0766,-0.0802,-0.087,-0.0891,-0.0876,-0.0719,-0.0695,-0.0525,-0.0331,-0.0264,-0.0125,-0.0175,-0.0102,-0.0017,-0.0128,-0.007,-0.0084,-0.0153,0,0,0,0,0,0,-0.0494,-0.0533,-0.0541,-0.0607,-0.0647,-0.0732,-0.0767,-0.0749,-0.0647,-0.0623,-0.05,-0.0479,-0.0281,-0.0366,-0.0102,-0.008,-0.0135,0.006,0.0063,-0.0063,-0.0075,-0.0086,-0.0161,0,0,0,0,0]}]]